Location: Dortmund
(51.5019°N, 7.6520°E)
Time: 08:34:10
(UTC+01:00)

ISS - Pass Details

Date: 13 November 2017
Orbit: 402 x 407 km, 51.6° (Epoch: 23 November)

Event Time Altitude Azimuth Distance (km) Brightness Sun altitude
Exits shadow 05:02:22 29° 108° (ESE) 772 -1.9 -25.0°
Drops below altitude 10° 05:04:06 10° 105° (ESE) 1,455 -0.1 -24.8°
Sets 05:06:11 0° 105° (ESE) 2,314 1.3 -24.4°
